Location: Milo
(50.5667°N, 112.8833°W)
Time: 13:03:15
(UTC+00:00)

N. Korean satellite - Pass Details

Date: 02 December 2021
Orbit: 447 x 490 km, 97.3° (Epoch: 27 January)

Event Time Altitude Azimuth Distance (km) Brightness Sun altitude
Rises 12:02:23 0° 25° (NNE) 2,476 10.5 -29.2°
Reaches altitude 10° 12:04:50 10° 44° (NE) 1,591 9.7 -28.8°
Maximum altitude 12:07:25 20° 93° (E) 1,106 9.1 -28.4°
Drops below altitude 10° 12:09:58 10° 142° (SE) 1,574 9.6 -28.0°
Sets 12:12:22 0° 160° (SSE) 2,438 10.4 -27.6°
